SCP
2 2 2 2 2 3 3 3 3 3 3 2 2 2 2 2 2 1 1 1 2 2 2 3 3 2 2 1 1 1 1 1 1 0 0 0 0 0 0 0 0 0 0
2 2 2 2 3 3 3 3 3 3 3 3 2 2 2 2 2 2 1 2 2 2 3 3 3 2 2 1 1 1 1 1 1 1 0 0 0 0 0 0 0 0 0
2 2 2 2 3 3 3 3 8 12 9 3 3 3 2 2 2 2 2 2 2 2 3 3 3 3 2 2 1 1 1 1 1 1 1 1 0 0 0 1 0 0 0
3 2 2 2 2 2 2 2 11 21 12 3 3 4 3 3 3 2 2 2 1 2 2 2 2 2 2 2 1 1 1 1 1 1 1 1 1 0 1 1 1 1 1
2 2 2 1 1 2 2 2 7 11 8 2 2 3 2 3 4 3 1 2 1 1 2 2 2 2 2 2 2 1 1 1 1 1 1 1 1 1 1 1 1 1 1
2 2 1 1 1 1 1 2 2 1 1 2 2 1 1 2 3 2 1 1 1 1 1 1 1 2 2 2 1 1 1 1 1 1 1 1 1 1 1 1 1 1 1
2 2 1 1 1 1 1 1 1 1 1 1 1 1 1 1 1 1 1 1 1 1 1 1 1 1 1 1 1 1 1 1 1 1 1 1 1 1 1 1 1 1 1
2 2 1 1 1 1 1 1 1 1 1 1 1 1 0 0 1 1 1 1 1 1 1 1 1 1 1 1 1 1 1 1 1 1 1 1 1 1 1 1 1 1 1
1 1 1 1 1 1 1 0 1 1 1 0 1 0 0 0 0 0 0 1 1 1 1 1 1 1 1 1 1 1 1 1 1 1 1 1 1 1 1 1 1 1 1
1 1 1 1 1 1 1 1 1 1 0 0 0 0 0 0 0 0 0 0 0 1 1 1 1 2 2 1 1 1 1 1 1 1 1 1 1 1 1 1 1 1 1
1 1 1 1 1 1 1 1 1 0 0 0 0 0 0 0 0 0 0 0 0 0 1 1 1 1 1 1 1 1 1 1 1 1 1 1 1 1 1 1 1 1 1
1 1 1 1 1 1 1 1 0 0 0 0 0 0 0 0 0 0 0 0 0 0 0 1 1 1 1 1 1 1 1 1 1 1 1 1 1 1 1 1 1 1 1
0 0 0 0 0 0 0 0 0 0 0 0 0 0 0 0 0 0 0 0 0 0 0 0 0 1 1 1 1 1 1 0 0 1 1 1 1 1 1 1 1 1 1
0 0 0 0 0 0 0 0 0 0 0 0 0 0 0 0 0 0 0 0 0 0 0 0 0 1 1 1 1 1 1 0 0 0 0 0 1 1 1 0 0 0 0
0 0 0 0 0 0 0 0 0 0 0 0 0 0 0 0 0 0 0 0 0 0 0 0 1 1 1 1 1 1 0 0 0 0 0 0 0 0 0 0 0 0 0
0 0 0 0 0 0 0 0 0 0 0 0 0 0 0 0 0 0 0 0 0 0 0 0 1 1 1 1 1 0 0 0 0 0 0 0 0 0 0 0 0 0 0
0 0 0 0 0 0 0 0 0 0 0 0 0 0 0 0 0 0 0 0 0 0 0 0 1 1 1 1 0 0 0 0 0 0 0 0 0 0 0 0 0 0 0
0 0 0 0 0 0 0 0 0 0 0 0 0 0 0 0 0 0 0 0 0 0 0 0 1 1 1 1 1 0 0 0 0 0 0 0 0 0 0 0 0 0 0
0 0 0 0 0 0 0 0 0 0 0 0 0 0 0 0 0 0 0 0 0 0 0 1 1 1 1 1 1 0 0 0 0 0 0 0 0 0 0 0 0 0 0
0 0 0 0 0 0 0 0 0 0 0 0 0 0 0 0 0 0 0 0 0 0 0 1 1 1 1 1 1 1 0 0 0 0 0 0 0 0 0 0 0 0 0
0 0 0 0 0 0 0 0 0 0 0 0 0 0 0 0 0 0 0 0 0 0 0 1 1 1 1 1 1 1 0 0 0 0 0 0 0 0 0 0 0 0 0
0 0 0 0 0 0 0 0 0 0 0 0 0 0 0 0 0 0 0 0 0 0 0 0 1 1 1 1 1 1 0 0 0 0 0 0 0 0 0 0 0 0 0
0 0 0 0 0 0 0 0 0 0 0 0 0 0 0 0 0 0 0 0 0 0 0 0 0 0 0 1 1 1 0 0 0 0 0 0 0 0 0 0 0 0 0
0 0 0 0 0 0 0 0 0 0 0 0 0 0 0 0 0 0 0 0 0 0 0 0 0 0 0 0 0 0 0 0 0 0 0 0 0 0 0 0 0 0 0
0 0 0 0 0 0 0 0 0 0 0 0 0 0 0 0 0 0 0 0 0 0 0 0 0 0 0 0 0 1 1 0 0 0 0 0 0 0 0 0 0 0 0
0 0 0 0 0 0 0 0 0 0 0 0 0 0 0 0 0 0 0 0 0 0 0 0 0 0 0 0 0 0 1 0 0 0 0 0 0 0 0 0 0 0 0
Wind_Speed
4 3 3 3 4 4 5 6 6 7 8 8 8 9 9 10 9 7 5 11 14 18 21 22 22 21 21 20 20 20 19 19 17 17 16 15 15 15 14 14 13 12 12
3 2 2 2 3 3 5 6 7 7 7 7 8 9 9 9 9 8 7 8 13 15 18 20 21 21 21 22 21 20 20 19 18 17 17 16 16 15 15 15 14 13 13
2 2 2 2 3 3 4 4 6 6 6 7 8 9 8 8 8 9 9 6 8 15 19 20 20 21 22 22 22 21 20 19 18 18 18 17 16 16 15 15 15 14 14
1 1 1 2 2 3 3 3 4 4 6 6 6 6 6 6 8 9 8 8 7 8 14 21 21 21 22 22 22 22 20 20 19 19 19 18 18 17 16 16 16 15 15
0 0 1 2 2 2 2 3 2 3 4 5 5 6 6 6 7 8 8 9 9 9 8 14 21 21 22 23 22 22 21 20 20 20 20 20 19 18 17 17 16 16 15
0 0 1 2 2 2 2 2 3 3 4 4 6 6 5 6 6 6 8 8 8 11 11 11 10 14 21 21 21 21 22 21 21 21 20 20 20 19 18 18 17 17 17
1 1 1 2 2 1 2 3 2 4 4 3 3 4 4 6 7 7 7 6 8 10 10 11 8 7 9 19 20 20 21 22 21 21 20 20 19 19 18 18 18 18 17
2 2 2 2 2 2 2 2 2 2 3 3 3 2 2 3 5 8 6 7 8 7 8 11 9 9 7 6 11 19 20 20 20 20 20 19 19 18 19 19 19 18 18
3 3 3 3 3 2 2 2 2 2 2 2 3 3 2 3 2 3 5 6 7 7 7 7 10 10 10 7 8 14 19 19 19 19 19 18 17 17 18 19 19 18 18
4 4 4 4 4 3 3 3 2 2 2 2 2 2 3 2 2 2 2 3 5 6 7 7 8 9 9 8 9 12 17 17 17 17 17 17 16 17 17 18 19 19 19
4 4 4 4 4 3 4 3 2 2 2 2 2 1 2 2 3 2 3 2 2 3 4 6 6 7 8 8 7 10 15 15 15 15 15 15 16 16 17 18 19 19 19
3 4 3 3 4 3 4 4 3 3 2 2 2 2 2 1 2 2 3 3 2 3 3 3 4 5 6 7 9 13 14 13 13 13 13 13 14 15 16 17 18 19 19
3 4 3 3 3 4 4 4 4 3 3 2 3 2 2 2 2 2 2 2 2 2 1 1 3 4 5 5 6 12 11 12 11 10 10 10 10 11 12 13 15 16 16
4 4 4 4 4 4 4 4 3 4 3 3 3 3 2 2 1 1 2 2 1 1 1 1 1 2 3 4 7 9 6 10 10 9 8 8 8 8 9 10 10 11 12
3 3 3 4 4 4 5 4 4 5 4 4 4 4 3 3 2 2 1 2 2 2 2 2 0 0 2 3 7 5 5 9 9 8 7 6 6 6 6 7 7 7 7
4 4 4 4 5 5 5 5 4 5 5 5 4 4 4 3 3 2 2 2 2 3 3 2 1 1 3 4 6 5 6 10 8 8 6 6 5 5 5 6 6 6 6
4 5 5 5 5 5 5 5 6 6 7 6 6 6 6 4 3 3 2 2 2 2 3 2 0 1 3 6 5 5 6 5 5 8 7 6 6 5 5 5 5 5 5
5 5 5 6 6 6 5 6 7 7 7 8 8 7 7 5 5 4 3 3 3 3 3 3 1 2 3 7 7 7 6 5 4 7 8 8 7 7 6 6 5 5 4
6 6 6 6 7 7 6 7 7 7 8 9 9 9 8 7 6 5 4 4 4 3 3 3 3 2 2 5 6 6 6 5 5 6 8 8 8 8 7 6 6 5 4
6 7 7 7 7 7 7 7 7 7 8 8 9 9 10 9 9 7 6 6 5 4 3 3 3 3 3 4 6 7 5 4 4 4 5 6 8 8 7 7 6 6 5
7 7 7 7 7 7 8 8 7 8 7 8 8 9 10 12 13 10 7 6 6 4 3 4 4 4 4 6 6 5 6 6 3 3 4 3 4 3 3 5 5 6 6
7 7 7 8 8 8 10 12 9 7 6 7 7 7 9 12 14 16 14 12 11 8 6 5 4 5 6 5 5 7 7 7 5 4 4 3 3 3 2 2 4 6 6
7 8 8 8 9 10 14 15 15 9 7 7 7 7 8 9 11 9 11 13 13 13 12 8 6 6 6 7 7 9 8 7 5 7 5 4 3 2 2 2 5 5 6
7 8 8 8 9 11 14 14 15 10 8 8 8 8 8 7 8 9 8 8 7 8 10 8 7 6 6 6 8 8 8 6 5 5 5 4 3 2 2 2 4 5 6
8 8 8 8 9 10 13 14 13 6 7 8 9 9 9 9 11 12 9 7 6 6 8 11 10 8 8 9 8 6 8 9 6 5 3 5 5 3 2 1 2 5 6
8 8 8 8 8 9 12 13 12 5 6 6 7 8 11 11 11 13 9 8 8 6 6 6 6 6 6 7 9 8 9 9 7 6 5 5 6 5 4 2 2 2 3
Wind_Direction
215 220 222 226 223 219 215 216 217 217 220 221 222 224 226 224 227 226 229 231 220 213 211 206 202 201 201 201 200 200 200 201 199 197 197 198 198 196 195 195 194 192 192
206 215 233 237 235 230 226 220 219 219 221 221 226 227 227 225 225 225 222 229 224 214 213 211 208 207 207 206 205 204 203 204 202 200 200 200 201 200 199 199 199 197 195
192 203 232 242 248 246 241 234 230 222 223 226 227 227 224 222 223 225 223 218 218 215 211 211 212 211 212 212 211 208 206 205 204 203 203 203 202 202 201 201 202 201 199
142 161 258 271 268 265 254 245 234 229 228 225 227 232 229 223 225 225 222 215 211 214 213 214 215 217 217 216 215 213 210 208 207 205 205 205 205 204 203 204 204 203 201
95 136 272 281 292 284 270 266 250 229 233 230 231 232 231 228 228 229 224 218 212 212 210 217 218 219 220 220 219 217 213 211 210 209 208 208 207 207 206 206 206 205 205
123 124 263 280 295 301 291 275 260 252 242 236 246 245 235 229 225 225 227 222 216 216 213 215 216 222 222 220 219 219 216 213 212 212 212 211 210 209 208 207 208 207 207
206 207 267 281 278 275 280 290 278 265 256 239 243 258 253 236 231 230 227 220 218 218 211 211 208 209 216 220 220 218 218 216 214 214 214 213 212 210 208 209 210 209 209
238 226 233 259 266 267 288 294 289 271 262 229 210 225 260 267 242 232 222 220 222 220 215 213 207 206 208 206 215 216 218 219 217 215 215 214 213 211 209 210 211 211 211
252 247 240 238 243 234 252 264 265 272 278 260 207 197 206 227 264 261 233 227 218 216 216 211 207 207 207 203 204 214 217 217 218 218 216 213 211 211 211 211 212 213 212
258 252 244 234 233 227 231 246 236 238 256 274 258 231 234 215 214 284 289 246 227 219 213 212 209 206 203 198 201 203 210 212 214 217 217 213 210 210 212 213 215 214 213
275 263 249 238 234 228 225 234 236 228 229 234 243 260 259 245 220 219 262 275 265 237 221 211 202 199 199 193 194 202 203 206 208 213 216 214 212 212 213 215 218 218 216
286 276 261 247 239 233 230 229 227 226 230 236 229 213 218 224 224 208 236 252 256 258 237 216 200 194 192 188 196 195 196 198 201 206 211 212 212 214 215 216 220 221 220
277 276 267 253 247 241 241 232 227 226 225 231 236 224 213 220 220 216 223 240 251 272 269 235 212 192 185 175 187 184 185 183 186 191 198 203 207 210 211 213 217 220 221
255 266 264 253 252 249 247 236 236 234 225 225 234 230 219 225 211 212 209 199 229 268 261 257 268 192 168 161 163 160 163 166 169 173 181 188 195 200 204 208 212 215 217
277 287 279 265 258 252 249 239 235 234 225 225 227 228 224 217 210 215 211 193 181 210 237 248 247 99 124 132 149 142 137 148 150 155 160 168 177 186 191 194 198 202 205
286 295 290 280 269 258 248 239 242 242 231 229 223 225 229 221 212 207 204 207 192 191 222 232 209 168 144 136 133 129 129 132 133 139 144 151 159 165 173 179 187 194 199
276 275 273 273 271 265 255 241 239 240 235 235 228 221 227 218 209 205 200 199 207 194 213 242 241 139 133 143 133 123 122 120 123 131 133 135 140 147 154 160 165 172 182
270 266 264 265 265 267 258 246 245 244 235 235 231 223 226 220 210 203 197 205 209 209 199 211 205 176 162 158 149 142 135 126 121 127 125 123 123 123 125 129 133 138 147
270 268 264 260 260 260 256 250 242 241 235 233 228 222 222 213 213 205 198 201 206 214 207 195 200 194 166 156 148 141 130 120 125 125 117 113 114 112 111 112 117 126 132
267 265 262 257 255 254 253 251 247 242 239 236 231 224 220 212 211 204 202 200 195 199 201 197 194 188 179 166 157 152 145 137 134 128 112 109 109 103 103 105 111 120 126
274 267 264 261 257 255 255 251 244 249 241 239 236 229 223 218 214 205 200 194 190 191 194 199 196 184 182 175 175 162 154 141 122 132 125 120 109 96 90 95 102 111 116
272 269 264 261 259 264 265 261 251 246 240 236 237 235 234 228 221 214 209 197 189 188 193 197 198 194 189 184 172 163 155 156 158 157 136 128 116 108 88 80 103 111 114
273 271 267 261 259 258 258 258 257 245 233 230 229 230 239 232 215 211 212 207 203 201 193 186 193 202 189 184 177 176 172 166 154 157 138 130 125 116 94 92 112 117 120
272 271 268 263 260 262 259 254 256 247 233 230 227 225 226 230 216 201 200 200 202 204 202 194 194 201 197 186 186 182 171 146 110 146 142 130 133 119 103 82 110 120 124
278 273 268 265 262 265 261 255 250 238 232 234 232 228 221 220 218 201 190 193 201 213 212 205 201 202 199 190 178 166 163 163 155 163 156 129 133 119 106 101 102 118 123
277 278 276 269 262 266 265 256 246 227 228 230 230 228 222 215 213 201 191 188 198 207 197 197 205 212 203 195 186 185 180 175 158 156 163 138 138 138 137 132 125 122 118